Location: Pardubice
(50.0330°N, 15.7830°E)
Time: 10:58:18
(UTC+02:00)

A-11 Canister half - All Passes

Search period start: 07 October 2024 00:00
Search period end: 17 October 2024 00:00
Orbit: 1524 x 1684 km, 47.3° (Epoch: 06 October)

Date Brightness Start Highest point End Pass type
(mag) Time Alt. Az. Time Alt. Az. Time Alt. Az.
07 Oct - 06:51:26 10° SSE 06:57:04 18° SE 07:02:41 10° E daylight
07 Oct - 08:51:28 10° SW 09:00:12 48° SSE 09:09:01 10° E daylight
07 Oct - 10:55:15 10° WSW 11:04:31 75° S 11:13:58 10° E daylight
07 Oct - 12:59:58 10° W 13:09:13 68° SSW 13:18:42 10° ESE daylight
07 Oct - 15:04:57 10° W 15:13:13 36° SW 15:21:42 10° SSE daylight
08 Oct - 06:30:07 10° SSE 06:35:25 17° SE 06:40:42 10° E visible
08 Oct - 08:29:48 10° SW 08:38:29 47° SSE 08:47:14 10° E daylight
08 Oct - 10:33:31 10° WSW 10:42:46 74° S 10:52:11 10° E daylight
08 Oct - 12:38:13 10° W 12:47:27 69° SSW 12:56:57 10° ESE daylight
08 Oct - 14:43:10 10° W 14:51:30 37° SW 15:00:04 10° SSE daylight
08 Oct - 16:52:18 10° WSW 16:54:18 11° WSW 16:56:18 10° SW daylight
09 Oct - 06:08:49 10° SSE 06:13:45 16° SE 06:18:41 10° E visible
09 Oct - 08:08:09 10° SW 08:16:46 45° SSE 08:25:27 10° E daylight
09 Oct - 10:11:46 10° WSW 10:21:00 74° S 10:30:24 10° E daylight
09 Oct - 12:16:27 10° W 12:25:42 70° SSW 12:35:10 10° ESE daylight
09 Oct - 14:21:23 10° W 14:29:47 39° SW 14:38:25 10° SSE daylight
09 Oct - 16:29:43 10° WSW 16:32:39 12° WSW 16:35:35 10° SW daylight
10 Oct - 05:47:34 10° SSE 05:52:06 15° SE 05:56:37 10° E visible
10 Oct - 07:46:30 10° SSW 07:55:04 43° SE 08:03:39 10° E daylight
10 Oct - 09:50:01 10° WSW 09:59:15 73° S 10:08:37 10° E daylight
10 Oct - 11:54:42 10° W 12:03:56 71° SSW 12:13:24 10° ESE daylight
10 Oct - 13:59:36 10° W 14:08:04 40° SW 14:16:46 10° SSE daylight
10 Oct - 16:07:24 10° WSW 16:10:59 13° SW 16:14:36 10° SSW daylight
11 Oct - 05:26:23 10° SSE 05:30:27 14° SE 05:34:30 10° E visible
11 Oct - 07:24:51 10° SSW 07:33:21 42° SE 07:41:52 10° E daylight
11 Oct - 09:28:16 10° WSW 09:37:30 72° SSE 09:46:50 10° E daylight
11 Oct - 11:32:57 10° W 11:42:11 72° SSW 11:51:38 10° ESE daylight
11 Oct - 13:37:49 10° W 13:46:21 41° SW 13:55:06 10° SSE daylight
11 Oct - 15:45:12 10° W 15:49:19 14° SW 15:53:30 10° SSW daylight
12 Oct - 05:05:18 10° SSE 05:08:48 13° SE 05:12:18 10° ESE visible
12 Oct - 07:03:13 10° SSW 07:11:39 40° SE 07:20:04 10° E daylight
12 Oct - 09:06:31 10° WSW 09:15:45 71° SSE 09:25:04 10° E daylight
12 Oct - 11:11:11 10° W 11:20:26 72° S 11:29:51 10° ESE daylight
12 Oct - 13:16:03 10° W 13:24:39 43° SW 13:33:26 10° SSE daylight
12 Oct - 15:23:05 10° W 15:27:39 15° SW 15:32:17 10° SSW daylight
13 Oct - 04:44:20 10° SE 04:47:09 12° ESE 04:49:58 10° ESE visible
13 Oct - 06:41:35 10° SSW 06:49:57 39° SE 06:58:17 10° E visible
13 Oct - 08:44:47 10° WSW 08:53:59 70° SSE 09:03:16 10° E daylight
13 Oct - 10:49:25 10° W 10:58:40 73° S 11:08:05 10° ESE daylight
13 Oct - 12:54:16 10° W 13:02:55 44° SSW 13:11:46 10° SE daylight
13 Oct - 15:01:02 10° W 15:06:00 16° SW 15:11:02 10° SSW daylight
14 Oct - 04:23:40 10° SE 04:25:31 11° ESE 04:27:20 10° ESE visible
14 Oct - 06:19:57 10° SSW 06:28:14 37° SE 06:36:29 10° E visible
14 Oct - 08:23:02 10° WSW 08:32:15 69° SSE 08:41:30 10° E daylight
14 Oct - 10:27:40 10° W 10:36:55 74° S 10:46:18 10° ESE daylight
14 Oct - 12:32:30 10° W 12:41:12 46° SSW 12:50:04 10° SE daylight
14 Oct - 14:39:02 10° W 14:44:19 17° SW 14:49:43 10° SSW daylight
15 Oct - 05:58:20 10° SSW 06:06:32 36° SE 06:14:41 10° E visible
15 Oct - 08:01:17 10° WSW 08:10:29 68° SSE 08:19:43 10° E daylight
15 Oct - 10:05:54 10° W 10:15:09 74° S 10:24:32 10° ESE daylight
15 Oct - 12:10:44 10° W 12:19:28 47° SSW 12:28:23 10° SE daylight
15 Oct - 14:17:03 10° W 14:22:39 18° SW 14:28:21 10° SSW daylight
16 Oct - 05:36:44 10° SSW 05:44:50 35° SE 05:52:53 10° E visible
16 Oct - 07:39:33 10° WSW 07:48:44 67° SSE 07:57:57 10° E daylight
16 Oct - 09:44:08 10° W 09:53:24 75° S 10:02:46 10° ESE daylight
16 Oct - 11:48:57 10° W 11:57:45 49° SSW 12:06:42 10° SE daylight
16 Oct - 13:55:06 10° W 14:00:59 19° SW 14:06:58 10° S daylight
